Lid_Strength_Index
5 5 5 5 5 5 5 5 4 4 4 3 3 2 3 2 2 5 8 6 5 3 3 4 4 5 6 8 7 10 16 16 14 13 11 10 12 8 4 6 6 5 5 4 2
5 5 5 5 5 5 4 4 4 4 4 3 3 2 2 2 6 9 4 1 1 2 5 6 7 6 9 8 8 11 14 14 12 11 13 10 11 9 7 7 7 6 4 3 3
5 5 5 5 5 5 4 4 3 3 3 3 3 2 2 2 9 9 0 -0 -2 1 3 4 6 8 10 9 9 11 13 11 11 10 10 10 11 9 7 10 7 7 6 4 3
5 5 5 5 4 4 4 4 3 3 2 2 2 2 2 4 16 5 -0 -0 0 1 4 5 8 11 11 11 9 12 10 9 10 9 10 10 9 10 9 9 5 5 4 4 4
5 5 5 5 4 4 4 3 3 2 2 2 2 2 4 8 9 4 0 2 4 2 4 6 9 10 12 10 9 10 10 9 9 9 9 8 9 11 10 9 4 4 4 4 4
5 5 5 5 4 3 3 3 2 2 1 2 1 2 6 11 5 4 4 4 4 6 6 6 8 8 9 10 10 9 9 9 9 10 10 9 9 9 10 7 5 5 5 4 4
5 5 5 4 4 4 3 3 2 2 1 1 1 3 7 8 3 3 4 6 5 5 6 4 5 7 8 9 8 8 11 10 10 9 10 9 10 10 9 8 6 6 5 5 4
5 4 5 4 4 3 3 2 2 2 2 1 1 4 10 4 4 4 4 5 4 4 4 5 4 7 8 6 7 10 12 14 11 10 9 9 13 9 9 9 6 6 6 5 5
5 5 4 4 3 3 2 2 2 2 2 2 5 7 10 3 4 3 3 5 4 4 4 4 5 6 7 10 13 11 15 14 12 10 10 10 13 9 8 10 8 7 6 6 5
5 5 4 4 3 3 3 2 3 3 3 3 4 9 7 7 3 2 3 2 4 4 5 5 6 9 10 12 17 15 14 14 14 12 11 12 12 10 8 8 8 7 6 6 6
5 5 4 4 3 3 4 7 9 10 8 9 8 8 6 3 1 3 2 3 4 5 11 7 12 14 12 10 10 11 12 13 12 10 11 12 11 10 9 9 8 8 7 7 6
5 5 4 4 3 3 6 9 7 8 11 7 7 7 4 3 6 4 2 6 7 11 9 10 13 10 8 9 10 10 12 13 11 9 11 11 11 11 9 9 7 8 8 7 6
5 5 4 4 4 5 7 6 4 5 11 8 5 6 5 4 7 6 4 6 8 10 11 12 11 8 9 10 11 11 12 12 12 10 10 11 12 11 8 9 8 7 7 6 6
5 5 5 4 5 6 6 3 3 6 14 10 8 6 5 4 8 4 3 6 8 11 10 11 8 9 10 11 10 13 9 9 10 12 15 11 17 13 10 11 9 9 8 7 6
5 5 5 5 8 7 5 3 4 7 21 9 8 3 4 7 7 7 3 6 10 10 10 12 11 11 11 10 8 11 8 9 10 13 13 13 15 13 10 13 11 9 8 7 6
5 5 5 6 7 6 3 4 6 15 20 12 8 8 8 8 8 6 6 5 6 9 10 10 7 9 9 8 8 7 9 10 11 13 17 13 14 15 12 11 11 9 8 7 6
5 5 5 5 8 5 4 5 14 17 9 12 11 9 10 10 9 9 10 11 12 15 15 11 10 8 7 10 8 9 12 17 18 18 18 12 14 13 10 8 9 9 8 7 6
6 6 6 5 6 5 5 10 17 13 12 9 10 10 12 10 10 10 11 13 9 11 14 15 16 10 7 9 11 11 13 18 21 21 17 12 16 12 9 8 7 7 7 6 6
6 8 7 5 4 5 9 15 14 12 10 11 11 13 12 10 10 11 12 12 10 9 14 15 13 8 8 7 9 12 14 11 16 15 17 15 12 9 8 8 8 8 7 7 6
9 9 7 5 5 7 11 12 11 8 8 9 14 12 14 13 12 12 12 10 10 8 8 11 15 9 8 8 8 11 9 15 16 21 22 17 15 14 11 9 8 9 8 7 6
9 9 6 6 5 9 15 13 10 7 7 10 12 13 12 13 12 12 12 9 8 8 8 10 13 11 10 11 12 12 13 11 14 16 20 21 17 11 10 9 9 9 7 7 6
11 12 6 6 12 12 13 10 7 8 7 8 9 10 12 11 12 13 12 10 7 7 10 9 12 14 13 9 8 10 11 12 17 17 16 17 17 9 9 8 8 8 7 6 6
13 11 7 8 15 14 11 9 7 9 9 9 10 9 9 11 14 11 10 7 7 8 10 9 13 16 14 12 10 13 12 11 12 13 17 18 16 8 8 9 8 7 6 6 6
11 14 12 11 11 12 13 11 10 7 8 8 9 8 10 11 10 12 11 8 7 7 6 7 12 13 16 14 12 13 11 11 12 17 16 15 15 11 11 10 9 8 7 7 6
12 14 13 15 13 12 12 10 11 11 8 8 10 9 11 13 12 12 10 10 8 8 8 9 15 13 12 11 11 11 11 11 13 13 15 14 14 12 11 10 9 8 7 7 7
13 13 12 12 11 11 12 12 11 10 10 10 12 10 10 12 12 13 11 11 12 9 10 10 14 13 13 10 11 12 11 11 12 12 12 13 14 9 8 8 8 8 7 8 7
9 9 11 11 12 13 13 11 10 10 8 7 9 10 11 10 9 8 8 8 9 10 12 12 13 15 16 12 11 14 12 11 11 10 12 14 12 9 10 9 8 8 8 8 8